Location: Qazi Observatory
(41.6337°N, 88.1517°W)
Time: 04:37:14
(UTC-06:00)

Amateur Radio Satellites - All Passes

Search period start: 22 January 2018 04:07
Search period end: 23 January 2018 04:07
Location: Qazi Observatory, 41.6337°N, 88.1517°W

Satellite Date Start Highest point End Downlink Frequencies (MHz)
Time Altitude Azimuth
SO-50 22 Jan 04:08:11 04:11:53 26° 113° (ESE) 04:15:38 436.795
M-CUBED/EXP-1 PRIME 22 Jan 04:17:08 04:19:29 18° 100° (E) 04:21:48 437.505
KKS-1 22 Jan 04:22:33 04:26:57 76° 75° (ENE) 04:31:23 437.445
STARS 22 Jan 04:35:02 04:39:04 39° 71° (ENE) 04:43:10 437.465
LilacSat-2 22 Jan 04:48:22 04:49:27 11° 90° (E) 04:50:31 437.200
XW-2C 22 Jan 04:49:39 04:49:54 10° 90° (E) 04:50:07 145.795 - 145.815
FALCONSAT 3 22 Jan 04:49:44 04:53:00 30° 176° (S) 04:56:15 435.103
DOVE 4 22 Jan 05:00:46 05:05:08 67° 284° (WNW) 05:09:43 437.250
STRAND 1 22 Jan 05:03:29 05:06:02 14° 60° (ENE) 05:08:35 437.568
AO-7 22 Jan 05:10:14 05:17:22 33° 303° (WNW) 05:24:29 .
KAITUO 1B 22 Jan 05:18:33 05:20:55 16° 93° (E) 05:23:17 145.475/437.950
XW-2F 22 Jan 05:22:07 05:25:12 24° 95° (E) 05:28:14 145.980 - 146.000
NUDT-PHONESAT 22 Jan 05:26:45 05:29:25 19° 94° (E) 05:32:05 437.300
ITAMSAT 1 22 Jan 05:32:05 05:34:44 14° 301° (WNW) 05:37:22 435.822/435.867
XW-2D 22 Jan 05:32:43 05:36:13 36° 98° (E) 05:39:41 145.860 - 145.880
CUTE-I 22 Jan 05:33:40 05:38:22 31° 96° (E) 05:43:04 437.470
HO-68 22 Jan 05:43:46 05:49:12 23° 92° (E) 05:54:35 435.675
SO-50 22 Jan 05:48:03 05:52:10 35° 311° (NW) 05:56:22 436.795
FO-29 22 Jan 05:48:18 05:53:00 21° 63° (ENE) 05:57:21 435.910
XW-2B 22 Jan 05:50:13 05:53:57 59° 101° (E) 05:57:37 145.730 - 145.750
CUTE 1.7 + AOD 2 22 Jan 05:50:17 05:53:01 17° 92° (E) 05:55:42 437.475
M-CUBED/EXP-1 PRIME 22 Jan 05:51:13 05:53:53 22° 297° (WNW) 05:56:29 437.505
RS-15 22 Jan 06:12:24 06:22:10 29° 102° (ESE) 06:31:50 29.354- 29.394
STARS 22 Jan 06:12:30 06:15:33 19° 267° (W) 06:18:38 437.465
CUBEBUG 2 22 Jan 06:16:01 06:19:51 24° 93° (E) 06:23:38 437.445
UWE-3 22 Jan 06:19:32 06:21:58 14° 90° (E) 06:24:22 435.000/436.395/437.385
LilacSat-2 22 Jan 06:20:20 06:24:00 49° 286° (WNW) 06:27:37 437.200
XW-2C 22 Jan 06:20:42 06:24:23 53° 286° (WNW) 06:28:01 145.795 - 145.815
FALCONSAT 3 22 Jan 06:28:32 06:31:37 25° 191° (S) 06:34:42 435.103
STRAND 1 22 Jan 06:39:27 06:44:32 78° 257° (WSW) 06:49:40 437.568
ZACube-1 22 Jan 06:40:47 06:42:17 11° 88° (E) 06:43:46 437.345
AO-73 22 Jan 06:46:39 06:48:09 11° 88° (E) 06:49:38 145.935
AAUSAT CUBESAT 2 22 Jan 06:47:34 06:50:23 18° 93° (E) 06:53:10 437.432
KAITUO 1B 22 Jan 06:51:41 06:54:58 31° 289° (WNW) 06:58:14 145.475/437.950
XW-2F 22 Jan 06:56:15 06:59:11 22° 291° (WNW) 07:02:05 145.980 - 146.000
XW-2A 22 Jan 06:58:47 07:00:56 16° 93° (E) 07:03:04 145.665 - 145.685
NUDT-PHONESAT 22 Jan 07:00:08 07:03:15 26° 290° (WNW) 07:06:19 437.300
XW-2D 22 Jan 07:07:50 07:10:03 15° 294° (WNW) 07:12:16 145.860 - 145.880
SEEDS 22 Jan 07:09:23 07:13:34 79° 102° (ESE) 07:17:43 437.485
CUTE-I 22 Jan 07:13:38 07:18:23 34° 293° (WNW) 07:23:08 437.470
Oscar 11 22 Jan 07:17:21 07:19:49 15° 91° (E) 07:22:17 .
CUTE 1.7 + AOD 2 22 Jan 07:25:03 07:29:00 40° 288° (WNW) 07:32:56 437.475
XW-2B 22 Jan 07:27:06 07:27:34 10° 297° (WNW) 07:28:02 145.730 - 145.750
HO-68 22 Jan 07:30:21 07:37:27 68° 290° (WNW) 07:44:31 435.675
FO-29 22 Jan 07:30:51 07:37:40 67° 258° (WSW) 07:43:42 435.910
TIGRISAT 22 Jan 07:51:51 07:55:11 21° 65° (ENE) 07:58:35 435.000
CUBEBUG 2 22 Jan 07:52:08 07:56:30 37° 290° (WNW) 08:00:51 437.445
UWE-3 22 Jan 07:54:10 07:58:47 60° 286° (WNW) 08:03:18 435.000/436.395/437.385
PCSat 22 Jan 08:01:41 08:04:57 16° 104° (ESE) 08:08:14 145.827
UNISAT 6 22 Jan 08:06:48 08:10:45 32° 69° (ENE) 08:14:48 437.425
FALCONSAT 3 22 Jan 08:09:01 08:10:01 11° 205° (SSW) 08:11:00 435.103
O/OREOS (USA 219) 22 Jan 08:13:38 08:14:57 11° 50° (NE) 08:16:16 437.305
ZACube-1 22 Jan 08:14:29 08:19:02 69° 285° (WNW) 08:23:28 437.345
AO-73 22 Jan 08:20:19 08:24:51 68° 285° (WNW) 08:29:15 145.935
RS-15 22 Jan 08:21:00 08:33:23 82° 303° (WNW) 08:45:36 29.354- 29.394
AAUSAT CUBESAT 2 22 Jan 08:22:10 08:25:56 36° 289° (WNW) 08:29:41 437.432
XW-2A 22 Jan 08:30:48 08:33:37 25° 290° (WNW) 08:36:26 145.665 - 145.685
DELFI C3 22 Jan 08:44:39 08:47:50 23° 95° (E) 08:51:02 145.870
Oscar 11 22 Jan 08:52:03 08:56:13 48° 287° (WNW) 09:00:21 .
Max Valier Satellite 22 Jan 09:04:44 09:07:52 25° 96° (E) 09:10:57 145.860
YUBILEINY 22 Jan 09:05:08 09:13:23 44° 73° (ENE) 09:21:32 435.215
AIST 2D 22 Jan 09:15:09 09:16:58 14° 66° (ENE) 09:18:47 435.315
BEESAT 3 22 Jan 09:15:48 09:19:46 77° 303° (WNW) 09:23:47 437.485
EO-88 22 Jan 09:19:49 09:22:51 24° 96° (E) 09:25:51 145.990 - 145.960
HO-68 22 Jan 09:20:36 09:23:52 14° 310° (NW) 09:27:09 435.675
PRISM 22 Jan 09:25:55 09:29:50 49° 72° (ENE) 09:33:45 437.425
TIGRISAT 22 Jan 09:27:27 09:31:35 38° 263° (W) 09:35:50 435.000
PCSat 22 Jan 09:42:20 09:47:43 69° 301° (WNW) 09:53:09 145.827
UNISAT 6 22 Jan 09:43:53 09:47:29 24° 266° (W) 09:51:10 437.425
POLYITAN 1 22 Jan 09:48:27 09:50:27 13° 63° (ENE) 09:52:26 437.675
O/OREOS (USA 219) 22 Jan 09:50:32 09:55:02 89° 249° (WSW) 09:59:31 437.305
NANOSAT C BR1 22 Jan 10:01:52 10:04:27 16° 64° (ENE) 10:07:02 145.865
BEESAT 2 22 Jan 10:07:35 10:11:35 83° 303° (WNW) 10:15:39 435.950
QB50P2 22 Jan 10:16:24 10:20:01 28° 69° (ENE) 10:23:41 145.880/145.840
DELFI C3 22 Jan 10:19:16 10:22:30 25° 291° (WNW) 10:25:44 145.870
LO-87 22 Jan 10:33:56 10:36:58 24° 96° (E) 10:39:58 145.935 - 145.965
RS-15 22 Jan 10:37:20 10:47:59 32° 331° (NNW) 10:58:24 29.354- 29.394
Max Valier Satellite 22 Jan 10:38:44 10:41:31 20° 292° (WNW) 10:44:17 145.860
DUCHIFAT 1 22 Jan 10:43:05 10:46:56 37° 71° (ENE) 10:50:51 145.980
EO-79 22 Jan 10:46:07 10:50:14 54° 73° (ENE) 10:54:23 145.935-145.965
AIST 2D 22 Jan 10:46:31 10:49:48 36° 262° (W) 10:53:04 435.315
AO-85 22 Jan 10:53:27 10:57:04 35° 115° (ESE) 11:00:54 145.980
EO-88 22 Jan 10:53:36 10:56:20 20° 291° (WNW) 10:59:02 145.990 - 145.960
BEESAT 3 22 Jan 10:56:54 10:57:58 11° 322° (NW) 10:59:03 437.485
YUBILEINY 22 Jan 11:02:08 11:10:05 41° 273° (W) 11:18:00 435.215
PRISM 22 Jan 11:03:26 11:05:21 13° 268° (W) 11:07:16 437.425
ESTCUBE 1 22 Jan 11:20:23 11:24:52 68° 102° (ESE) 11:29:18 437.505/2401.250
POLYITAN 1 22 Jan 11:21:30 11:25:41 60° 259° (W) 11:29:55 437.675
PCSat 22 Jan 11:29:26 11:32:09 14° 322° (NW) 11:34:51 145.827
AO-91 22 Jan 11:30:26 11:32:09 13° 65° (ENE) 11:33:53 145.960
NANOSAT C BR1 22 Jan 11:35:41 11:39:45 46° 261° (W) 11:43:51 145.865
BUGSAT 1 22 Jan 11:38:05 11:41:45 33° 70° (ENE) 11:45:29 437.445
BEESAT 2 22 Jan 11:48:27 11:49:57 12° 322° (NW) 11:51:28 435.950
QB50P2 22 Jan 11:52:17 11:55:45 24° 265° (W) 11:59:17 145.880/145.840
LO-87 22 Jan 12:07:28 12:10:13 21° 291° (WNW) 12:12:57 145.935 - 145.965
Gurwin Techsat 1B 22 Jan 12:19:14 12:24:17 47° 70° (ENE) 12:29:22 435.225
Oscar 19 22 Jan 12:19:43 12:24:50 63° 73° (ENE) 12:29:59 437.125/150
DUCHIFAT 1 22 Jan 12:19:45 12:22:42 18° 267° (W) 12:25:41 145.980
EO-79 22 Jan 12:24:20 12:26:17 13° 269° (W) 12:28:16 145.935-145.965
AO-7 22 Jan 12:26:47 12:32:23 20° 50° (NE) 12:38:01 .
SPROUT 22 Jan 12:32:37 12:36:56 82° 286° (WNW) 12:41:14 437.525
AO-85 22 Jan 12:34:15 12:37:33 24° 315° (NW) 12:41:04 145.980
SO-50 22 Jan 12:38:22 12:42:29 29° 47° (NE) 12:46:38 436.795
VELOX 1 22 Jan 12:48:45 12:53:10 78° 103° (ESE) 12:57:33 145.980
RS-15 22 Jan 12:56:40 13:05:43 23° 6° (N) 13:14:27 29.354- 29.394
ESTCUBE 1 22 Jan 12:59:07 13:01:04 13° 299° (WNW) 13:03:02 437.505/2401.250
DX 1 22 Jan 13:00:21 13:03:28 19° 94° (E) 13:06:36 434.975-435.025
50 SAT 22 Jan 13:01:32 13:03:02 13° 93° (E) 13:04:32 437.505
AO-91 22 Jan 13:05:15 13:08:19 32° 263° (W) 13:11:30 145.960
BUGSAT 1 22 Jan 13:14:12 13:17:10 19° 266° (W) 13:20:11 437.445
ITAMSAT 1 22 Jan 13:31:57 13:35:10 17° 61° (ENE) 13:38:24 435.822/435.867
Gurwin Techsat 1B 22 Jan 14:00:22 14:04:26 22° 267° (W) 14:08:32 435.225
Oscar 19 22 Jan 14:01:24 14:04:33 16° 269° (W) 14:07:43 437.125/150
AO-7 22 Jan 14:15:35 14:23:56 82° 70° (ENE) 14:32:21 .
SO-50 22 Jan 14:18:39 14:23:00 38° 244° (WSW) 14:27:24 436.795
UKube-1 22 Jan 14:19:45 14:24:05 86° 107° (ESE) 14:28:24 .
VELOX 1 22 Jan 14:27:44 14:28:57 11° 299° (WNW) 14:30:10 145.980
50 SAT 22 Jan 14:32:06 14:34:47 27° 289° (WNW) 14:37:27 437.505
DOVE 4 22 Jan 14:32:13 14:33:34 11° 63° (ENE) 14:34:55 437.250
DX 1 22 Jan 14:35:45 14:39:46 38° 290° (WNW) 14:43:47 434.975-435.025
ITUPSAT 1 22 Jan 14:44:17 14:48:15 25° 95° (E) 14:52:12 437.325
MOZHAYETS 4 22 Jan 14:57:36 15:02:13 65° 101° (E) 15:06:47
M-CUBED/EXP-1 PRIME 22 Jan 15:01:35 15:05:23 32° 66° (ENE) 15:08:57 437.505
CUBESAT XI-V 22 Jan 15:06:19 15:09:41 20° 93° (E) 15:13:02 437.345
ITAMSAT 1 22 Jan 15:08:57 15:14:05 65° 258° (WSW) 15:19:14 435.822/435.867
RS-15 22 Jan 15:11:26 15:22:33 43° 39° (NE) 15:33:05 29.354- 29.394
BEESAT 22 Jan 15:22:08 15:26:55 62° 102° (ESE) 15:31:38 436.000
XW-2F 22 Jan 16:04:02 16:05:54 13° 65° (ENE) 16:07:45 145.980 - 146.000
DOVE 4 22 Jan 16:06:31 16:10:46 64° 259° (W) 16:14:54 437.250
AO-7 22 Jan 16:11:37 16:17:32 21° 268° (W) 16:23:31 .
NO-84 22 Jan 16:13:21 16:16:30 79° 140° (SE) 16:19:28 435.350 FM
HO-68 22 Jan 16:14:04 16:18:45 19° 55° (NE) 16:23:26 435.675
XW-2D 22 Jan 16:14:21 16:17:08 20° 68° (ENE) 16:19:56 145.860 - 145.880
KKS-1 22 Jan 16:14:39 16:17:01 14° 92° (E) 16:19:22 437.445
ITUPSAT 1 22 Jan 16:21:44 16:26:06 35° 291° (WNW) 16:30:27 437.325
XW-2B 22 Jan 16:31:24 16:34:44 29° 70° (ENE) 16:38:03 145.730 - 145.750
M-CUBED/EXP-1 PRIME 22 Jan 16:36:18 16:39:43 23° 259° (W) 16:42:59 437.505
MOZHAYETS 4 22 Jan 16:36:25 16:38:49 14° 298° (WNW) 16:41:12
CUBESAT XI-V 22 Jan 16:42:53 16:47:12 40° 289° (WNW) 16:51:29 437.345
CUTE 1.7 + AOD 2 22 Jan 16:43:54 16:45:56 13° 64° (ENE) 16:47:59 437.475
PCSat 22 Jan 16:47:40 16:51:20 18° 42° (NE) 16:54:59 145.827
CUTE-I 22 Jan 16:55:30 17:00:38 52° 71° (ENE) 17:05:46 437.470
XW-2C 22 Jan 17:01:18 17:05:07 70° 76° (ENE) 17:08:56 145.795 - 145.815
BEESAT 22 Jan 17:01:20 17:04:09 16° 298° (WNW) 17:06:58 436.000
LilacSat-2 22 Jan 17:01:33 17:05:24 78° 76° (ENE) 17:09:16 437.200
CUBEBUG 2 22 Jan 17:14:36 17:17:44 19° 65° (ENE) 17:20:58 437.445
UWE-3 22 Jan 17:17:30 17:19:14 12° 61° (ENE) 17:20:59 435.000/436.395/437.385
RS-15 22 Jan 17:24:14 17:35:43 67° 245° (WSW) 17:46:36 29.354- 29.394
KAITUO 1B 22 Jan 17:30:36 17:34:21 72° 258° (WSW) 17:38:07 145.475/437.950
BEESAT 3 22 Jan 17:32:06 17:36:00 61° 56° (NE) 17:39:48 437.485
XW-2F 22 Jan 17:35:55 17:39:35 45° 261° (W) 17:43:15 145.980 - 146.000
NUDT-PHONESAT 22 Jan 17:38:00 17:41:42 61° 259° (W) 17:45:24 437.300
ZACube-1 22 Jan 17:38:09 17:38:35 10° 60° (ENE) 17:39:00 437.345
AAUSAT CUBESAT 2 22 Jan 17:38:45 17:40:37 13° 64° (ENE) 17:42:31 437.432
AO-73 22 Jan 17:43:37 17:44:06 10° 60° (ENE) 17:44:33 145.935
XW-2D 22 Jan 17:47:44 17:51:06 29° 263° (W) 17:54:29 145.860 - 145.880
KKS-1 22 Jan 17:49:31 17:53:52 55° 288° (WNW) 17:58:14 437.445
NO-84 22 Jan 17:52:14 17:53:57 14° 335° (NNW) 17:55:39 435.350 FM
HO-68 22 Jan 17:58:23 18:05:32 89° 246° (WSW) 18:12:45 435.675
STARS 22 Jan 17:59:41 18:04:07 76° 103° (ESE) 18:08:32 437.465
SEEDS 22 Jan 18:00:39 18:04:45 53° 74° (ENE) 18:08:51 437.485
XW-2B 22 Jan 18:06:06 18:08:54 19° 266° (W) 18:11:42 145.730 - 145.750
Oscar 11 22 Jan 18:13:05 18:15:02 13° 63° (ENE) 18:16:59 .
CUTE 1.7 + AOD 2 22 Jan 18:17:03 18:21:16 58° 260° (W) 18:25:29 437.475
BEESAT 2 22 Jan 18:24:50 18:28:49 59° 54° (NE) 18:32:43 435.950
PCSat 22 Jan 18:29:58 18:35:26 84° 242° (WSW) 18:40:51 145.827
CUTE-I 22 Jan 18:37:08 18:40:57 20° 267° (W) 18:44:47 437.470
FO-29 22 Jan 18:42:28 18:44:20 12° 89° (E) 18:46:13 435.910
CUBEBUG 2 22 Jan 18:49:51 18:54:01 42° 263° (W) 18:58:20 437.445
STRAND 1 22 Jan 18:49:52 18:54:35 35° 97° (E) 18:59:16 437.568
UWE-3 22 Jan 18:50:34 18:54:59 75° 258° (WSW) 18:59:35 435.000/436.395/437.385
XW-2A 22 Jan 19:00:44 19:04:10 85° 262° (W) 19:07:36 145.665 - 145.685
ZACube-1 22 Jan 19:09:36 19:14:04 89° 264° (W) 19:18:39 437.345
AAUSAT CUBESAT 2 22 Jan 19:11:32 19:15:35 56° 260° (W) 19:19:39 437.432
BEESAT 3 22 Jan 19:11:48 19:12:56 11° 252° (WSW) 19:14:05 437.485
AO-73 22 Jan 19:15:05 19:19:32 88° 253° (WSW) 19:24:07 145.935
AO-85 22 Jan 19:23:08 19:27:48 41° 51° (NE) 19:32:44 145.980
DELFI C3 22 Jan 19:30:50 19:33:00 15° 65° (ENE) 19:35:10 145.870
nSIGHT-1 22 Jan 19:33:28 19:36:35 65° 142° (SE) 19:39:44 .
STARS 22 Jan 19:38:21 19:39:49 12° 299° (WNW) 19:41:18 437.465
SEEDS 22 Jan 19:38:45 19:40:43 13° 270° (W) 19:42:41 437.485
RS-15 22 Jan 19:41:06 19:45:32 13° 266° (W) 19:49:55 29.354- 29.394
Max Valier Satellite 22 Jan 19:44:44 19:46:30 13° 65° (ENE) 19:48:16 145.860
Oscar 11 22 Jan 19:46:18 19:50:36 64° 259° (WSW) 19:54:57 .
HO-68 22 Jan 19:50:12 19:54:10 15° 271° (W) 19:58:09 435.675
ISS 22 Jan 19:54:57 19:58:11 71° 142° (SE) 20:01:27 437.550
EO-88 22 Jan 19:58:50 20:00:18 12° 65° (ENE) 20:01:47 145.990 - 145.960
BEESAT 2 22 Jan 20:04:22 20:05:59 12° 252° (WSW) 20:07:38 435.950
PCSat 22 Jan 20:16:49 20:17:55 11° 259° (W) 20:19:01 145.827
FO-29 22 Jan 20:24:52 20:30:04 75° 286° (WNW) 20:35:21 435.910
STRAND 1 22 Jan 20:29:14 20:33:37 29° 294° (WNW) 20:37:59 437.568
DELFI C3 22 Jan 21:03:37 21:07:21 43° 261° (W) 21:11:06 145.870
AO-85 22 Jan 21:03:47 21:08:08 30° 246° (WSW) 21:12:40 145.980
nSIGHT-1 22 Jan 21:10:25 21:12:59 22° 340° (NNW) 21:15:34 .
LO-87 22 Jan 21:11:46 21:12:47 11° 64° (ENE) 21:13:48 145.935 - 145.965
Max Valier Satellite 22 Jan 21:16:19 21:19:54 44° 261° (W) 21:23:31 145.860
TIGRISAT 22 Jan 21:18:10 21:22:40 44° 98° (E) 21:27:08 435.000
EO-88 22 Jan 21:29:59 21:33:30 46° 261° (W) 21:37:02 145.990 - 145.960
ISS 22 Jan 21:32:17 21:34:56 22° 340° (NNW) 21:37:36 437.550
UNISAT 6 22 Jan 21:33:55 21:38:38 71° 101° (E) 21:43:18 437.425
YUBILEINY 22 Jan 22:06:00 22:14:22 50° 89° (E) 22:22:42 435.215
AIST 2D 22 Jan 22:11:46 22:13:46 14° 93° (E) 22:15:44 435.315
ESTCUBE 1 22 Jan 22:19:36 22:24:04 63° 74° (ENE) 22:28:32 437.505/2401.250
PRISM 22 Jan 22:41:34 22:45:40 80° 102° (ESE) 22:49:45 437.425
LO-87 22 Jan 22:42:15 22:45:42 48° 261° (W) 22:49:13 145.935 - 145.965
NO-84 22 Jan 22:45:37 22:48:24 50° 38° (NE) 22:51:15 435.350 FM
nSIGHT-1 22 Jan 22:48:19 22:50:01 14° 0° (N) 22:51:42 .
TIGRISAT 22 Jan 22:55:34 22:59:01 21° 295° (WNW) 23:02:28 435.000
POLYITAN 1 22 Jan 23:06:32 23:09:50 21° 94° (E) 23:13:07 437.675
ISS 22 Jan 23:10:25 23:12:18 14° 1° (N) 23:14:10 437.550
UNISAT 6 22 Jan 23:12:26 23:14:44 14° 298° (WNW) 23:17:01 437.425
NANOSAT C BR1 22 Jan 23:19:46 23:23:22 26° 95° (E) 23:26:56 145.865
SPROUT 22 Jan 23:25:27 23:29:41 76° 75° (ENE) 23:33:57 437.525
QB50P2 22 Jan 23:35:47 23:39:59 50° 100° (E) 23:44:08 145.880/145.840
AIST 2D 22 Jan 23:43:55 23:47:00 30° 288° (WNW) 23:50:03 435.315
VELOX 1 22 Jan 23:45:41 23:50:02 69° 74° (ENE) 23:54:24 145.980
DX 1 22 Jan 23:56:19 23:59:15 18° 65° (ENE) 00:02:12 434.975-435.025
ESTCUBE 1 22 Jan 23:59:19 00:01:15 12° 270° (W) 00:03:11 437.505/2401.250
DUCHIFAT 1 23 Jan 00:01:41 00:05:56 67° 101° (E) 00:10:09 145.980
O/OREOS (USA 219) 23 Jan 00:02:46 00:07:15 78° 292° (WNW) 00:11:47 437.305
YUBILEINY 23 Jan 00:03:22 00:11:21 37° 289° (WNW) 00:19:21 435.215
EO-79 23 Jan 00:05:48 00:10:06 82° 284° (WNW) 00:14:22 145.935-145.965
NO-84 23 Jan 00:24:08 00:25:15 12° 233° (SW) 00:26:22 435.350 FM
nSIGHT-1 23 Jan 00:24:27 00:27:02 22° 20° (NNE) 00:29:37 .
Oscar 19 23 Jan 00:31:53 00:35:46 21° 93° (E) 00:39:37 437.125/150
Gurwin Techsat 1B 23 Jan 00:36:09 00:39:43 18° 92° (E) 00:43:15 435.225
POLYITAN 1 23 Jan 00:41:47 00:45:39 33° 290° (WNW) 00:49:30 437.675
ISS 23 Jan 00:46:52 00:49:38 24° 21° (NNE) 00:52:23 437.550
AO-91 23 Jan 00:52:34 00:56:54 40° 98° (E) 01:01:38 145.960
BUGSAT 1 23 Jan 00:54:02 00:58:14 56° 101° (E) 01:02:23 437.445
NANOSAT C BR1 23 Jan 00:55:23 00:59:00 27° 292° (WNW) 01:02:36 145.865
50 SAT 23 Jan 00:55:41 00:58:45 69° 76° (ENE) 01:01:50 437.505
QB50P2 23 Jan 01:12:50 01:15:19 15° 296° (WNW) 01:17:49 145.880/145.840
UKube-1 23 Jan 01:13:52 01:18:08 74° 75° (ENE) 01:22:26 .
VELOX 1 23 Jan 01:25:56 01:26:55 11° 270° (W) 01:27:54 145.980
DX 1 23 Jan 01:31:00 01:35:06 42° 260° (W) 01:39:14 434.975-435.025
DUCHIFAT 1 23 Jan 01:39:24 01:41:00 12° 298° (WNW) 01:42:38 145.980
ITUPSAT 1 23 Jan 01:51:01 01:55:11 31° 67° (ENE) 01:59:23 437.325
MOZHAYETS 4 23 Jan 01:59:10 02:03:44 62° 74° (ENE) 02:08:21
nSIGHT-1 23 Jan 02:00:17 02:03:27 65° 217° (SW) 02:06:35 .
CUBESAT XI-V 23 Jan 02:09:44 02:13:15 21° 66° (ENE) 02:16:45 437.345
Oscar 19 23 Jan 02:10:21 02:15:18 47° 290° (WNW) 02:20:12 437.125/150
Gurwin Techsat 1B 23 Jan 02:14:48 02:20:01 58° 288° (WNW) 02:25:13 435.225
AO-7 23 Jan 02:17:56 02:24:40 26° 94° (E) 02:31:19 .
ISS 23 Jan 02:23:05 02:26:19 59° 219° (SW) 02:29:32 437.550
BEESAT 23 Jan 02:28:22 02:33:07 74° 75° (ENE) 02:37:53 436.000
AO-91 23 Jan 02:29:34 02:33:09 23° 292° (WNW) 02:36:59 145.960
BUGSAT 1 23 Jan 02:30:55 02:33:06 14° 297° (WNW) 02:35:15 437.445
FALCONSAT 3 23 Jan 02:37:49 02:40:10 16° 160° (SSE) 02:42:32 435.103
KKS-1 23 Jan 03:13:14 03:15:36 14° 62° (ENE) 03:18:00 437.445
ITAMSAT 1 23 Jan 03:21:33 03:26:31 43° 99° (E) 03:31:27 435.822/435.867
ITUPSAT 1 23 Jan 03:28:50 03:32:57 29° 264° (W) 03:37:07 437.325
MOZHAYETS 4 23 Jan 03:39:06 03:41:17 13° 270° (W) 03:43:30
CUBESAT XI-V 23 Jan 03:45:54 03:50:19 41° 262° (W) 03:54:45 437.345
